Location: Abrucena
(37.1323°N, 2.7971°W)
Time: 00:48:39
(UTC+00:00)

Daily predictions for brighter satellites

Satellite Brightness Start Highest point End
(mag) Time Altitude Azimuth Time Altitude Azimuth Time Altitude Azimuth
Lacrosse 5 4.0 00:01:44 10° WNW 00:03:12 18° WNW 00:03:12 18° WNW
Cosmos 1655 Rocket 4.1 00:07:30 68° NW 00:07:30 68° NW 00:13:14 10° N
COSMOS 2455 3.7 00:11:40 40° ENE 00:11:40 40° ENE 00:15:56 10° NE
S3M 4.1 00:07:09 10° N 00:12:36 68° NW 00:12:36 68° NW
USA 215 3.9 00:33:07 41° W 00:33:07 41° W 00:37:43 10° NW
Cosmos 1656 Rocket 4.2 00:33:51 56° NNW 00:33:51 56° NNW 00:38:38 10° NNE
FALCON 9 R/B 3.1 00:38:26 59° ESE 00:38:26 59° ESE 00:51:33 10° E
SL-4 R/B 3.7 00:49:12 38° NNE 00:49:12 38° NNE 00:52:18 10° NE
NOSS 3-2 (C) 4.0 00:45:16 10° NNW 00:53:08 86° WSW 00:54:29 67° SSE
ATLAS CENTAUR R/B 3.1 00:56:56 32° NNE 00:56:56 32° NNE 00:59:17 10° NNE
NOSS 3-4 (A) 3.9 00:57:31 49° WNW 00:57:48 50° NW 01:03:50 10° NNE
NOSS 3-4 (C) 3.9 00:57:37 50° WNW 00:57:53 50° NW 01:03:56 10° NNE
SL-16 R/B 4.1 00:56:01 20° ESE 00:58:48 29° ENE 01:03:56 10° N
SL-19 R/B 4.5 00:55:14 10° NNE 01:00:03 64° ENE 01:00:03 64° ENE
Cosmos 1244 Rocket 4.4 01:07:54 83° NW 01:07:54 83° NW 01:13:59 10° N
ATLAS 3B R/B 3.3 01:02:08 10° NNW 01:08:48 52° NE 01:12:42 26° ESE
Meteor 2-21 Rocket 4.4 01:11:40 81° E 01:11:40 81° E 01:17:47 10° N
CENTAUR R/B 3.1 01:04:42 10° NW 01:13:03 77° WSW 01:14:47 61° S
Cosmos 1745 Rocket 4.3 01:12:45 52° ESE 01:13:10 53° E 01:19:07 10° NNE
Cosmos 1867 3.8 01:11:51 10° NNW 01:16:45 68° N 01:16:45 68° N
RESURS DK-1 3.9 01:19:17 34° NNE 01:19:17 34° NNE 01:21:42 10° NNE
Meteor 1-24 Rocket 3.8 01:22:03 64° NNW 01:22:03 64° NNW 01:26:42 10° N
Meteor 2-14 Rocket 4.5 01:24:00 66° WNW 01:24:00 66° WNW 01:29:59 10° N
Exosat Rocket 4.5 01:15:17 10° NNW 01:24:11 58° WSW 01:24:29 57° WSW
ATLAS 2AS CENTAUR R/B 4.0 01:23:17 28° W 01:26:31 39° NW 01:33:53 10° NNE
CZ-2D R/B 2.6 01:25:15 10° NNE 01:30:15 51° E 01:30:15 51° E
ADEOS II 4.0 01:29:07 10° NE 01:32:52 20° E 01:34:07 18° ESE
Meteor 2-5 Rocket 4.5 01:35:17 40° WNW 01:35:17 40° WNW 01:40:04 10° N
Resurs 1-4 Rocket 2.2 01:34:53 10° NNE 01:40:09 66° ESE 01:40:11 66° ESE
GEOS 3 Rocket 4.0 01:48:42 49° WNW 01:48:42 49° WNW 01:52:43 10° NW
NPP 3.7 01:42:14 10° NNE 01:47:36 66° ESE 01:47:57 64° SE
Cosmos 1656 4.1 01:48:20 50° SE 01:48:51 51° ESE 01:54:19 10° NNE
CZ-4C R/B 3.3 01:50:43 27° ESE 01:50:52 27° ESE 01:55:19 10° NE
Cosmos 2084 4.1 01:52:18 55° N 01:52:18 55° N 01:56:03 10° NNE
SL-08 ROCKET BODY 4.2 01:52:04 72° WSW 01:52:28 75° W 01:58:21 10° N
COSMOS 2455 4.2 01:54:47 24° WNW 01:56:19 26° NW 02:01:19 10° N
SJ 16-02 3.3 01:52:55 10° N 01:56:38 26° ENE 01:59:16 15° ESE
Cosmos 921 Rocket 4.2 02:00:21 32° NW 02:00:21 32° NW 02:03:24 10° N
Cosmos 1709 Rocket 4.0 02:01:48 53° SSE 02:03:15 74° E 02:09:21 10° N
Cosmos 1386 Rocket 4.4 02:02:40 60° WSW 02:03:20 64° W 02:09:25 10° N
Meteor 2-10 Rocket 4.2 01:59:01 10° N 02:04:08 48° ENE 02:06:01 33° SE
Cosmos 1626 Rocket 4.4 02:06:42 41° NW 02:06:42 41° NW 02:10:01 10° N
SL-19 R/B 4.4 02:07:57 54° S 02:09:25 82° WSW 02:15:49 10° NNW
Cosmos 1980 Rocket 4.0 02:13:41 17° SE 02:16:17 23° E 02:20:36 10° NE
STARLINK-1338 4.3 02:17:39 42° NNE 02:17:39 42° NNE 02:20:12 10° NE
Cosmos 2219 3.4 02:13:04 10° NNW 02:18:44 70° ENE 02:22:14 24° SE
Cosmos 1328 4.4 02:19:19 50° ESE 02:19:29 50° E 02:23:21 10° NNE
STARLINK-1371 4.2 02:21:31 44° N 02:21:31 44° N 02:24:14 10° NE
Cosmos 192 4.4 02:20:35 59° W 02:20:54 61° WNW 02:25:50 10° N
UNK 4.0 02:22:20 53° WNW 02:22:20 53° WNW 02:26:26 10° NNW
STARLINK-1341 4.2 02:23:29 44° N 02:23:29 44° N 02:26:16 10° NE
STARLINK-1374 4.1 02:25:26 44° N 02:25:26 44° N 02:28:19 10° NE
STARLINK-1339 4.1 02:27:27 43° NNW 02:27:27 43° NNW 02:30:23 10° NE
STARLINK-1377 4.1 02:29:28 43° NNW 02:29:28 43° NNW 02:32:28 10° NE
Nadezhda 1 Rocket 4.3 02:23:43 10° NNW 02:29:31 44° W 02:30:28 41° WSW
STARLINK-1353 4.1 02:31:17 41° NNW 02:31:17 41° NNW 02:34:17 10° NE
IRS-1C 4.5 02:26:04 10° NNE 02:31:21 60° ESE 02:33:25 36° SSE
AQUA 4.0 02:27:02 10° N 02:31:41 55° WNW 02:32:11 52° W
Cosmos 1812 Rocket 3.8 02:27:27 10° NNW 02:31:37 54° W 02:31:37 54° W
STARLINK-1375 4.1 02:33:04 40° NNW 02:33:04 40° NNW 02:36:08 10° NE
CZ-4B R/B 3.8 02:29:16 10° N 02:34:15 51° WNW 02:35:12 45° WSW
Cosmos 2297 Rocket 2.3 02:28:37 10° NNW 02:34:17 75° ENE 02:39:14 14° SSE
Cosmos 540 Rocket 4.3 02:32:22 29° SSE 02:34:26 43° ESE 02:39:17 10° NNE
STARLINK-1350 4.2 02:35:22 39° NNW 02:35:22 39° NNW 02:38:31 10° NNE
STARLINK-1352 4.2 02:37:40 37° NW 02:37:40 37° NW 02:40:57 10° NNE
Cosmos 2278 4.4 02:36:08 28° SSE 02:38:42 46° ESE 02:44:05 10° NE
Cosmos 1825 Rocket 3.3 02:38:21 68° SW 02:38:48 76° W 02:43:08 10° N
STARLINK-1368 4.3 02:39:45 36° NW 02:39:50 36° NW 02:43:07 10° NNE
Cosmos 990 Rocket 4.2 02:34:57 10° NNW 02:40:13 68° ENE 02:44:40 14° SSE
CBERS-1 4.0 02:36:03 10° N 02:41:09 68° WNW 02:42:28 48° SW
STARLINK-1369 4.3 02:41:37 34° NW 02:41:45 34° NW 02:44:59 10° NNE
SL-16 R/B 2.9 02:41:07 39° WSW 02:42:09 42° W 02:47:57 10° NNW
STARLINK-1372 4.4 02:43:58 32° NW 02:44:14 33° NW 02:47:28 10° NNE
Cosmos 1455 2.1 02:40:47 10° NNW 02:44:16 63° WNW 02:44:16 63° WNW
Cosmos 2074 Rocket 4.4 02:40:26 22° SSE 02:44:35 60° E 02:50:46 10° NNE
STARLINK-1378 4.4 02:46:05 31° NW 02:46:28 32° NW 02:49:40 10° NNE
Cosmos 841 Rocket 3.8 02:44:28 34° S 02:46:39 64° ESE 02:51:50 10° NNE
STARLINK-1329 4.5 02:46:35 30° NW 02:46:59 31° NW 02:50:12 10° NNE
ATLAS CENTAUR R/B 3.0 02:43:41 10° NNW 02:47:13 62° NE 02:55:59 10° SE
USA 234 4.0 02:41:35 10° ENE 02:47:43 42° SE 02:51:06 25° S
GP-B 3.4 02:48:40 10° N 02:52:57 49° W 02:53:37 45° WSW
IRS-1D 3.9 02:48:53 10° N 02:54:03 52° WNW 02:55:45 37° WSW
Cosmos 2184 Rocket 4.1 02:51:54 22° S 02:56:06 72° E 03:02:14 10° N
Cosmos-2242 2.8 02:51:52 10° NNW 02:56:07 72° W 02:57:20 44° SSW
Cosmos 1400 Rocket 4.0 02:53:16 10° N 02:57:13 43° ENE 03:01:08 10° SSE
SL-08 R/B 3.4 02:54:12 18° SSE 02:57:44 77° ENE 03:02:25 10° N
ATLAS 3B R/B 3.5 02:53:24 10° NW 02:59:10 29° WSW 02:59:50 29° WSW
Cosmos 1703 3.9 03:02:09 37° W 03:02:28 38° W 03:06:11 10° N
Alouette 2 Rocket 4.1 02:58:14 10° NNW 03:03:41 48° W 03:04:50 38° SW
Cosmos 1763 Rocket 4.0 03:03:46 32° WSW 03:05:29 43° WNW 03:10:20 10° N
Cosmos 1697 Rocket 2.8 03:04:56 32° SW 03:07:30 63° WNW 03:13:08 10° NNE
IRS-P3 4.4 03:04:28 10° N 03:09:39 53° WNW 03:12:06 30° SW
Cosmos 2227 Rocket 2.2 03:04:14 10° NNW 03:09:50 64° WSW 03:15:25 10° S
CZ-2D R/B 3.7 03:06:28 10° NNW 03:09:57 18° WNW 03:11:34 16° W
Cosmos 2181 Rocket 4.2 03:04:43 10° NNW 03:10:59 57° W 03:15:15 21° SSW
STARLINK-1228 3.0 03:08:52 10° NW 03:12:08 55° SW 03:15:24 10° SSE
ADEOS II 2.5 03:07:45 10° N 03:12:45 45° WNW 03:15:03 28° SW
SL-16 R/B 4.4 03:09:44 10° SE 03:13:43 20° E 03:17:43 10° NE
STARLINK-1212 2.7 03:10:48 10° NW 03:13:54 85° SW 03:17:00 10° SE
STARLINK-1105 2.7 03:11:16 10° NW 03:14:22 84° SW 03:17:26 10° SE
STARLINK-1247 2.7 03:12:11 10° NW 03:15:18 82° SW 03:18:24 10° SE
STARLINK-1227 2.6 03:12:38 10° NW 03:15:44 80° SW 03:18:49 10° SE
STARLINK-1226 2.7 03:13:29 10° NW 03:16:36 79° SW 03:19:42 10° SE
STARLINK-1215 2.7 03:14:26 10° NW 03:17:34 77° SW 03:20:39 10° SE
H-2A R/B 2.5 03:14:26 10° SSE 03:18:38 63° ENE 03:22:58 10° N
STARLINK-1217 2.7 03:16:12 10° NW 03:19:18 73° SW 03:22:24 10° SE
Resurs 1-4 Rocket 4.0 03:16:30 10° NNW 03:19:22 15° WNW 03:21:16 13° W
CZ-2C R/B 3.3 03:15:48 10° NNE 03:19:25 51° E 03:22:06 17° S
STARLINK-1229 2.7 03:17:08 10° NW 03:20:14 71° SW 03:23:20 10° SE
STARLINK-1270 2.7 03:18:00 10° NW 03:21:06 69° SW 03:24:11 10° SE
STARLINK-1189 2.7 03:19:50 10° NW 03:22:56 65° SW 03:26:00 10° SE
STARLINK-1188 2.7 03:20:43 10° NW 03:23:49 63° SW 03:26:54 10° SE
ARIANE 5 R/B 2.6 03:19:22 10° N 03:24:19 57° WNW 03:27:15 23° SW
STARLINK-1235 3.1 03:23:58 39° WSW 03:24:26 43° SW 03:27:24 10° SSE
STARLINK-1187 2.9 03:21:51 10° WNW 03:24:53 51° SW 03:27:54 10° SSE
STARLINK-1191 2.8 03:23:12 10° NW 03:26:16 59° SW 03:29:18 10° SE
STARLINK-1221 2.8 03:24:04 10° NW 03:27:08 57° SW 03:30:10 10° SE
STARLINK-1222 2.8 03:24:58 10° NW 03:28:01 56° SW 03:31:03 10° SSE
Cosmos 2154 Rocket 4.1 03:21:54 11° S 03:28:02 82° E 03:34:20 10° N
STARLINK-1271 4.4 03:24:16 10° NW 03:28:20 53° NE 03:32:22 10° ESE
BREEZE-M DEB (TANK) 3.3 03:26:31 10° NW 03:28:26 29° NNE 03:30:47 10° E
STARLINK-1214 2.8 03:25:53 10° NW 03:28:55 54° SW 03:31:57 10° SSE
Cosmos 2058 4.1 03:25:41 10° SSE 03:29:35 40° E 03:33:31 10° NNE
Spot 4 Rocket 4.0 03:25:08 10° N 03:30:15 71° WNW 03:34:02 18° SSW
Lacrosse 4 Rocket 2.3 03:26:56 10° NNW 03:31:10 52° ENE 03:35:14 10° SE
Meteor 1-27 4.2 03:27:14 10° N 03:32:48 88° W 03:38:22 10° S
Cosmos 1898 Rocket 4.0 03:28:15 10° NW 03:33:10 39° WSW 03:37:14 14° SSW
STARLINK-1154 4.2 03:29:14 10° NW 03:33:20 59° NE 03:37:24 10° ESE
USA 129 3.4 03:32:18 10° NNE 03:33:05 20° NNE 03:33:05 20° NNE
SJ 16-02 2.5 03:31:31 10° NW 03:35:05 24° W 03:36:12 22° WSW
STARLINK 1040 2.4 03:35:58 38° SSW 03:36:46 71° SE 03:39:20 10° NE
IDEFIX/ARIANE 42P 2.6 03:32:59 10° NNE 03:38:17 87° WNW 03:43:16 12° SSW
STARLINK-1197 4.1 03:34:11 10° NW 03:38:18 65° NE 03:42:24 10° ESE
CZ-4C R/B 3.0 03:35:54 18° WSW 03:39:05 35° NW 03:44:18 10° NNE
STARLINK-26 4.4 03:37:51 17° S 03:39:54 33° SE 03:43:02 10° ENE
Meteor 2-17 Rocket 4.5 03:35:32 13° SSW 03:40:59 69° W 03:47:07 10° N
STARLINK-1198 3.9 03:39:07 10° NW 03:43:16 72° NE 03:47:23 10° SE
Cosmos 1937 Rocket 3.8 03:38:23 10° NNW 03:43:21 44° WSW 03:48:19 10° S
Cosmos 2285 Rocket 4.1 03:37:21 10° NNW 03:43:32 55° WSW 03:49:39 10° S
Cosmos 1842 Rocket 3.5 03:41:36 10° N 03:46:07 82° W 03:50:33 10° S
STARLINK-1199 3.7 03:44:07 10° NW 03:48:16 80° NE 03:52:25 10° SE
Iridium 2 3.9 03:45:09 10° NNW 03:48:47 47° W 03:52:03 12° SSW
IRIDIUM 104 4.3 03:44:23 10° S 03:49:34 70° W 03:54:47 10° N
CZ-4B R/B 3.4 03:49:40 10° SE 03:52:20 28° ENE 03:55:01 10° NNE
STARLINK-1210 3.6 03:49:05 10° NW 03:53:14 88° NE 03:57:23 10° SE
STARLINK-42 4.1 03:51:29 14° SSW 03:53:52 35° SE 03:56:50 10° ENE
ERS-2 3.1 03:53:43 15° SSW 03:56:03 27° W 03:59:12 10° NW
STARLINK-43 3.5 03:53:30 17° WSW 03:56:11 61° NW 03:59:50 10° NE
STARLINK-1219 3.5 03:54:03 10° NW 03:58:12 84° SW 04:02:21 10° SE
Cosmos 1825 4.2 03:55:24 10° SSE 03:58:40 29° E 04:01:56 10° NNE
IRIDIUM 114 4.5 03:53:38 10° SSW 03:58:45 56° W 04:03:53 10° N
Cosmos 1980 Rocket 2.8 03:55:27 14° SW 03:59:56 43° WNW 04:05:17 10° N
CZ-2C R/B 3.3 03:57:27 10° NNE 04:02:30 54° E 04:07:33 10° S
STARLINK-1211 3.5 03:59:02 10° NW 04:03:10 76° SW 04:07:17 10° SE
STARLINK-1316 4.4 04:04:17 10° SSW 04:07:02 30° SE 04:09:49 10° ENE
STARLINK-1257 4.3 04:05:08 10° SSW 04:07:55 30° SE 04:10:42 10° ENE
STARLINK-1245 3.5 04:04:02 10° NW 04:08:09 68° SW 04:12:15 10° SE
Nadezhda 3 Rocket 4.1 04:02:10 10° NNW 04:08:20 61° W 04:14:32 10° S
STARLINK-1256 4.3 04:06:04 10° SSW 04:08:51 31° SE 04:11:40 10° ENE
STARLINK-1213 4.2 04:06:54 10° SSW 04:09:42 32° SE 04:12:32 10° ENE
STARLINK-1263 4.2 04:07:46 10° SSW 04:10:36 33° SE 04:13:26 10° ENE
STARLINK-55 3.0 04:07:53 12° SW 04:10:47 71° SE 04:13:57 10° NE
STARLINK-1259 4.2 04:08:39 10° SSW 04:11:29 33° SE 04:14:21 10° ENE
Cosmos 1076 Rocket 3.6 04:07:43 10° SSW 04:12:00 62° W 04:16:21 10° N
STARLINK-1265 4.1 04:09:18 10° SSW 04:12:08 34° SE 04:15:00 10° ENE
STARLINK-1285 4.1 04:09:32 10° SSW 04:12:23 34° SE 04:15:15 10° ENE
STARLINK-1233 3.6 04:09:01 10° NW 04:13:07 61° SW 04:17:10 10° SE
STARLINK-1296 4.0 04:11:18 10° SSW 04:14:10 36° SE 04:17:04 10° ENE
Cosmos 2341 Rocket 4.1 04:07:49 10° S 04:14:12 78° W 04:20:35 10° N
Landsat 5 4.2 04:10:35 10° SSW 04:14:45 39° W 04:19:00 10° NNW
STARLINK-1260 4.0 04:12:11 10° SSW 04:15:04 37° SE 04:17:59 10° ENE
STARLINK-1268 3.9 04:12:56 10° SSW 04:15:49 37° SE 04:18:43 10° ENE
STARLINK-1318 3.9 04:13:03 10° SSW 04:15:57 38° SE 04:18:53 10° ENE
STARLINK-1275 3.9 04:13:57 10° SSW 04:16:52 39° SE 04:19:48 10° ENE
Cosmos 2297 Rocket 3.9 04:15:17 10° WNW 04:17:34 13° W 04:19:50 10° WSW
STARLINK-1291 3.9 04:14:39 10° SSW 04:17:43 41° SE 04:20:50 10° ENE
STARLINK-1309 3.9 04:14:51 10° SSW 04:17:47 40° SE 04:20:44 10° ENE
STARLINK-1204 3.7 04:14:02 10° NW 04:18:05 54° SW 04:22:07 10° SSE
STARLINK-1282 3.8 04:15:45 10° SSW 04:18:41 41° SE 04:21:38 10° ENE
STARLINK-1264 3.9 04:16:07 10° SSW 04:19:10 42° SE 04:22:15 10° ENE
STARLINK-1313 3.5 04:16:48 10° SSW 04:19:49 50° SE 04:22:50 10° ENE
STARLINK-1267 3.8 04:17:31 10° SSW 04:20:35 44° SE 04:23:41 10° ENE
STARLINK-1279 3.4 04:17:41 10° SSW 04:20:42 52° SE 04:23:44 10° ENE
STARLINK-28 2.9 04:17:35 10° SW 04:20:46 79° NW 04:23:58 10° NE
STARLINK-1298 3.7 04:18:25 10° SSW 04:21:24 44° SE 04:24:23 10° ENE
STARLINK-1272 3.7 04:18:52 10° SSW 04:21:58 46° SE 04:25:05 10° ENE
STARLINK-1293 3.7 04:19:17 10° SSW 04:22:16 45° SE 04:25:16 10° ENE
STARLINK-1311 3.3 04:19:30 10° SSW 04:22:24 53° SE 04:25:20 10° ENE
STARLINK-1238 3.8 04:19:01 10° WNW 04:23:01 48° SW 04:27:00 10° SSE
STARLINK-1207 3.7 04:20:15 10° SSW 04:23:22 48° SE 04:26:31 10° ENE
STARLINK-1255 3.6 04:21:04 10° SSW 04:24:04 48° SE 04:27:06 10° ENE
STARLINK-1266 3.6 04:21:42 10° SSW 04:24:50 50° SE 04:27:59 10° ENE
STARLINK-1284 3.5 04:23:08 10° SSW 04:26:19 53° SE 04:29:29 10° ENE
Cosmos 1892 3.3 04:22:48 10° SSW 04:26:24 38° W 04:30:00 10° N
STARLINK-1258 3.5 04:24:33 10° SSW 04:27:43 55° SE 04:30:54 10° NE
STARLINK-1201 4.0 04:24:03 10° WNW 04:27:59 43° SW 04:31:55 10° SSE
STARLINK-1292 3.4 04:26:01 10° SSW 04:29:12 57° SE 04:32:25 10° NE
Cosmos 2322 Rocket 2.4 04:24:47 10° SSW 04:30:25 80° ESE 04:36:03 10° NNE
USA 234 3.8 04:24:26 10° NE 04:30:44 52° NW 04:37:01 10° WSW
